Вернуться в каталог

STARLINK-35626

АктивенСвязьVLEO
NORAD 66233·PAYLOAD·🇺🇸 United States

Запущен Oct 28, 2025 с Vandenberg Space Force Base

Loading…

Ближайшие Пролёты (ближайшие 24 часа)

TLE

СвежийSource: CelesTrak SupGP

Эпоха: Sep 14, 2026, 23:12 UTC

1 66233C 25244AD  26257.96715278  .00035457  00000+0  10479-2 0  2577
2 66233  53.1587  69.4523 0001160  78.4803  34.2249 15.34361856    15

Отслеживайте STARLINK-35626 в реальном времени с AllMySat

Download on the App Store